937 
ASUS46 KSEW 120010
RWRWA 

WASHINGTON REGIONAL WEATHER ROUNDUP
NATIONAL WEATHER SERVICE SEATTLE WA
400 PM PST WED DEC 11 2019

NOTE:"FAIR" INDICATES FEW OR NO CLOUDS BELOW 12,000 FEET WITH NO 
SIGNIFICANT WEATHER AND/OR OBSTRUCTIONS TO VISIBILITY.

WAZ507-509-555>559-120100-
SEATTLE, TACOMA, EVERETT, AND VICINITY
  
CITY           SKY/WX    TMP DP  RH WIND       PRES   REMARKS
EVERETT        CLOUDY    47  44  90 S14       29.89F                  
6HR MIN TEMP:  45; 6HR MAX TEMP:  48; 6HR PCP:  0.06;                

BOEING FIELD   LGT RAIN  50  45  83 S8        29.91F                  
6HR MIN TEMP:  47; 6HR MAX TEMP:  50; 6HR PCP:  0.01;                

RENTON         LGT RAIN  48  45  89 SE3       29.91F                  
6HR MIN TEMP:  45; 6HR MAX TEMP:  49; 6HR PCP:  0.01;                

SEATAC AIRPORT LGT RAIN  49  45  86 S8        29.90F                  
6HR MIN TEMP:  47; 6HR MAX TEMP:  49; 6HR PCP:  0.10;                

JBLM-MCCHORD   LGT RAIN  47  47 100 S5        29.90F                  
6HR MIN TEMP:  45; 6HR MAX TEMP:  50; 6HR PCP:  0.07;                

PUYALLUP       DRIZZLE   48  48 100 CALM      29.90F                  
BREMERTON      LGT RAIN  47  46  97 S10       29.89F                  
6HR MIN TEMP:  44; 6HR MAX TEMP:  47;                                

JBLM-FT LEWIS  LGT RAIN  48  48 100 SE3       29.89F                  
6HR MIN TEMP:  44; 6HR MAX TEMP:  50; 6HR PCP:  0.04;                

TACOMA NARROWS LGT RAIN  47  45  93 S6        29.90F FOG              
6HR MIN TEMP:  45; 6HR MAX TEMP:  47; 6HR PCP:  0.09;                

$$
 
WAZ001-503-506-510-514-515-120100-
NORTH INTERIOR
  
CITY           SKY/WX    TMP DP  RH WIND       PRES   REMARKS
BELLINGHAM     CLOUDY    51  42  71 SE15G21   29.84F                  
6HR MIN TEMP:  44; 6HR MAX TEMP:  51; 6HR PCP: TRACE;                

FRIDAY HARBOR  CLOUDY    46  44  93 SE7       29.84F                  
6HR MIN TEMP:  47; 6HR MAX TEMP:  48; 6HR PCP: TRACE;                

EASTSOUND      LGT RAIN  50  46  87 S9        29.83S                  
PORT ANGELES   LGT RAIN  44  43  96 CALM      29.82F                  
6HR MIN TEMP:  43; 6HR MAX TEMP:  45;                                

EDIZ HOOK      CLOUDY    46  43  91 CALM      29.82F                  
6HR MIN TEMP:  43; 6HR MAX TEMP:  46;                                

PORT TOWNSEND  CLOUDY    48  45  87 S9G17     29.83S                  
NAS WHIDBEY    CLOUDY    52  44  74 S21G26    29.88F                  
6HR MIN TEMP:  50; 6HR MAX TEMP:  52; 6HR PCP: TRACE;                

ARLINGTON      CLOUDY    48  43  82 SE16      29.89S                  
6HR MIN TEMP:  44; 6HR MAX TEMP:  48;                                

BURLINGTON     CLOUDY    50  45  81 SE13      29.86S                  
$$
 
WAZ020-022-039-040-504-511-512-120100-
SOUTHWEST INTERIOR
  
CITY           SKY/WX    TMP DP  RH WIND       PRES   REMARKS
SHELTON        LGT RAIN  46  45  96 CALM      29.88S FOG              
6HR MIN TEMP:  45; 6HR MAX TEMP:  46; 6HR PCP:  0.19;                

OLYMPIA        LGT RAIN  47  46  97 CALM      29.89F                  
6HR MIN TEMP:  44; 6HR MAX TEMP:  49; 6HR PCP:  0.12;                

CHEHALIS       LGT RAIN  48  48 100 S8        29.89F                  
KELSO          LGT RAIN  49  46  90 SE12G17   29.92F                  
6HR MIN TEMP:  44; 6HR MAX TEMP:  49; 6HR PCP:  0.06;                

VANCOUVER      CLOUDY    45  41  86 E9        29.95F                  
6HR MIN TEMP:  45; 6HR MAX TEMP:  47; 6HR PCP:  0.07;                

SCAPPOOSE, OR  CLOUDY    47  45  93 S6        29.93F                  
6HR MIN TEMP:  44; 6HR MAX TEMP:  47; 6HR PCP:  0.06;                

PORTLAND, OR   LGT RAIN  45  41  86 SE12      29.95F                  
6HR MIN TEMP:  45; 6HR MAX TEMP:  47; 6HR PCP:  0.07;                

$$
 
WAZ021-516-517-120100-
WASHINGTON COAST
  
CITY           SKY/WX    TMP DP  RH WIND       PRES   REMARKS
FORKS          RAIN      45  44  97 SE17G28   29.79F FOG              
6HR MIN TEMP:  42; 6HR MAX TEMP:  48; 6HR PCP:  0.40;                

HOQUIAM        LGT RAIN  48  47  96 SE15      29.85F                  
6HR MIN TEMP:  46; 6HR MAX TEMP:  50; 6HR PCP:  0.22;                

ASTORIA, OR    LGT RAIN  49  46  90 S9        29.85F                  
6HR MIN TEMP:  47; 6HR MAX TEMP:  52; 6HR PCP:  0.05;                

$$
 
WAZ019-023-024-040-567>569-120100-
CASCADE MOUNTAINS AND COLUMBIA GORGE
  
CITY           SKY/WX    TMP DP  RH WIND       PRES   REMARKS
STAMPEDE PASS  SNOW      29  27  92 E3        29.88F VSB 1/2          
6HR MIN TEMP:  29; 6HR MAX TEMP:  32; 6HR PCP:  0.04;                

TROUTDALE, OR  LGT RAIN  44  39  82 E17       29.96F                  
6HR MIN TEMP:  44; 6HR MAX TEMP:  45; 6HR PCP:  0.05;                

HOOD RIVER, OR RAIN      39  37  93 CALM      30.02F                  
THE DALLES, OR CLOUDY    40  37  89 E3        30.05S                  
6HR MIN TEMP:  39; 6HR MAX TEMP:  41; 6HR PCP:  0.03;                

$$

WAZ026-027-041>044-520-521-120100-
EAST SLOPES
  
CITY           SKY/WX    TMP DP  RH WIND       PRES   REMARKS
OMAK           CLOUDY    32  28  85 CALM      30.05F FOG              
6HR MIN TEMP:  31; 6HR MAX TEMP:  33; 6HR PCP: TRACE;                

WENATCHEE      CLOUDY    31  29  92 SE5       30.04S                  
6HR MIN TEMP:  31; 6HR MAX TEMP:  31;                                

ELLENSBURG     FLURRIES  33  29  85 E3        30.00S                  
6HR MIN TEMP:  32; 6HR MAX TEMP:  33; 6HR PCP: TRACE;                

YAKIMA         LGT RAIN  34  31  88 CALM      30.03F                  
6HR MIN TEMP:  34; 6HR MAX TEMP:  35; 6HR PCP:  0.01;                

SUNNYSIDE ARPT RAIN      37  35  94 CALM      30.05                   
6HR MIN TEMP:  35; 6HR MAX TEMP:  37;                                

YAKIMA TC      LGT RAIN  32  30  93 CALM      30.00                   
6HR MIN TEMP:  31; 6HR MAX TEMP:  32; 6HR PCP:  0.02;                

$$

WAZ028-034-035-120100-
COLUMBIA BASIN
  
CITY           SKY/WX    TMP DP  RH WIND       PRES   REMARKS
EPHRATA        CLOUDY    32  30  92 N6        30.02F                  
6HR MIN TEMP:  31; 6HR MAX TEMP:  32; 6HR PCP: TRACE;                

MOSES LAKE     CLOUDY    35  31  85 N3        30.03F                  
6HR MIN TEMP:  34; 6HR MAX TEMP:  35;                                

PASCO          CLOUDY    38  34  85 W3        30.07F                  
6HR MIN TEMP:  37; 6HR MAX TEMP:  39; 6HR PCP: TRACE;                

RICHLAND ARPT  CLOUDY    37  36  94 NW5       30.07                   
6HR MIN TEMP:  36; 6HR MAX TEMP:  38;                                

HERMISTON, OR  LGT RAIN  39  36  89 CALM      30.04S FOG              
6HR MIN TEMP:  36; 6HR MAX TEMP:  40; 6HR PCP: TRACE;                

$$

WAZ036>038-120100-
NORTHEAST WASHINGTON
  
CITY           SKY/WX    TMP DP  RH WIND       PRES   REMARKS
SPOKANE GEIGER FOG       32  30  92 NE5       30.01F VSB 1/4          
6HR MIN TEMP:  29; 6HR MAX TEMP:  33;                                

SPOKANE FELTS  CLOUDY    35  31  85 CALM      30.03F                  
6HR MIN TEMP:  32; 6HR MAX TEMP:  35;                                

FAIRCHILD AFB  FOG       32  32 100 E6        30.00S VSB 1/4          
6HR MIN TEMP:  28; 6HR MAX TEMP:  32;                                

COEURDALENE,ID LGT SNOW  32  31  96 NE3       30.03F VSB 1            
6HR MIN TEMP:  31; 6HR MAX TEMP:  35; 6HR PCP:  0.02;                

DEER PARK      CLOUDY    31  29  92 N3        30.03S                  
6HR MIN TEMP:  30; 6HR MAX TEMP:  32;                                

$$

WAZ029>033-120100-
SOUTHEAST WASHINGTON
  
CITY           SKY/WX    TMP DP  RH WIND       PRES   REMARKS
PULLMAN        CLOUDY    36  33  89 E9        30.02F                  
6HR MIN TEMP:  33; 6HR MAX TEMP:  36;                                

LEWISTON, ID   CLOUDY    37  34  89 W3        30.04F FOG              
6HR MIN TEMP:  33; 6HR MAX TEMP:  39; 6HR PCP: TRACE;                

WALLA WALLA    LGT RAIN  37  36  96 SW8       30.02S FOG              
6HR MIN TEMP:  34; 6HR MAX TEMP:  39; 6HR PCP: TRACE;                

PENDLETON, OR  LGT RAIN  37  36  96 W3        30.00F VSB 1/2          
6HR MIN TEMP:  37; 6HR MAX TEMP:  42; 6HR PCP:  0.01;                

$$